www.pogodaiklimat.ru

Погода и климат >> Архив погоды >> Беларусь >> Пинск


АРХИВ ПОГОДЫ в Пинске

Время (UTC), дата Ветер
(напр.,м/с)
 
Видим.   Явления Облачность Т
(С)
Тd
(С)
f
(%)
Тe
(С)
Тes
(С)
Комфортность P
(гПа)
Po
(гПа)
Тmin
(С)
Tmax
(С)
R
(мм)
R24
(мм)
S
(см)
03 14.06 СВ 1 10 км 9/0
[Ac trans]
+16.8 +12.0 73 +18 +18 тепло 1008.6 992.0
06 14.06 В 1 15 км 9/9 1020 м
[Sc]
+21.4 +13.2 60 +24 +25 комфорт 1008.9 992.6 +16.1
09 14.06 СВ 2 15 км 9/9 960 м
[Sc]
+22.9 +11.2 48 +25 +27 комфорт 1009.7 993.5
12 14.06 СВ 2 12 км 9/9 900 м
[Sc]
+20.9 +13.5 63 +24 +26 комфорт 1010.2 993.8
15 14.06 СВ 3 12 км 10/10 400 м
[St]
+20.4 +14.4 68 +23 +23 комфорт 1009.8 993.4
18 14.06 ЮВ 2 10 км в посл. час ливневой дождь 10/10 480 м
[St]
+18.6 +14.1 75 +20 +20 тепло 1010.2 993.7 +24.0 0.4
21 14.06 СВ 2 10 км ясно +17.5 +15.4 87 +18 +18 тепло 1010.9 994.3
00 15.06 СВ 4 6000 м дымка 6/0
[Ac trans]
+15.3 +14.5 95 +14 +14 по сезону 1010.8 994.0
03 15.06 СВ 4 3600 м дымка 10/10 270 м
[St]
+14.9 +14.4 97 +14 +14 по сезону 1011.1 994.3
06 15.06 СВ 2 9000 м дымка 10/10 420 м
[St]
+16.5 +14.0 85 +17 +17 тепло 1011.4 994.7 +14.7
09 15.06 В 2 10 км 9/9 570 м
[Sc]
+18.6 +14.2 76 +20 +21 тепло 1012.3 995.7
12 15.06 СВ 3 10 км 10/6 1000 м
[Cu hum]
+21.4 +13.5 61 +24 +27 комфорт 1012.3 995.9
15 15.06 В 3 15 км 8/3 600 м
[Sc Ac trans]
+21.9 +12.6 56 +24 +26 комфорт 1012.4 996.0
18 15.06 В 2 10 км 6/4 1000 м
[Sc Ci fib]
+18.5 +13.1 71 +20 +20 тепло 1013.7 997.1 +24.3
21 15.06 СВ 2 10 км 9/9 630 м
[Sc]
+15.8 +12.8 82 +16 +16 по сезону 1014.8 998.0
00 16.06 СВ 2 9000 м дымка 6/0
[Ci fib]
+14.3 +12.7 90 +14 +14 по сезону 1014.9 998.0
03 16.06 С 2 9000 м дымка 9/9 1000 м
[Sc]
+14.6 +12.7 88 +14 +14 по сезону 1014.8 997.9
06 16.06 СВ 3 10 км 10/10 420 м
[St]
+16.7 +13.1 79 +16 +16 по сезону 1015.5 998.8 +13.4
09 16.06 В 4 10 км 10/10 420 м
[St]
+19.4 +12.5 64 +21 +21 комфорт 1015.8 999.2
12 16.06 ЮВ 3 10 км 10/10 450 м
[St]
+21.4 +12.6 57 +24 +24 комфорт 1015.8 999.4
15 16.06 В 2 15 км 8/0
[Ac trans Ci fib]
+24.7 +12.8 47 +27 +30 жарко 1014.7 998.5
18 16.06 Ю 2 15 км 3/0
[Ci fib]
+20.3 +13.4 65 +23 +23 комфорт 1015.3 998.8 +25.2
21 16.06 штиль 0 10 км 4/0
[Ci fib]
+15.2 +12.7 85 +15 +15 по сезону 1016.3 999.5
00 17.06 штиль 0 8000 м дымка 3/0
[Ci fib]
+12.7 +11.8 94 +12 +12 по сезону 1016.8 999.8
03 17.06 СВ 1 3900 м дымка 8/0
[Ci fib]
+11.7 +11.4 98 +11 +12 прохладно 1016.8 999.7
06 17.06 ЮВ 2 20 км 9/0
[Ci fib]
+18.2 +13.6 75 +19 +25 тепло 1016.6 999.9 +11.2
09 17.06 СВ 4 30 км 9/0
[Ci fib]
+23.7 +12.9 51 +26 +35 жарко 1016.2 999.9
12 17.06 В 4 30 км 8/0
[Ci fib]
+26.1 +10.1 37 +27 +35 жарко 1015.1 999.0
15 17.06 В 4 30 км 9/0
[Ac trans Ci fib]
+26.4 +9.7 35 +27 +29 жарко 1014.3 998.2
18 17.06 Ю 2 10 км 9/0
[Ac trans Ci fib]
+22.9 +14.8 60 +27 +27 душно 1015.0 998.7 +27.6
21 17.06 ЮВ 1 9000 м слабый ливневой дождь 10/10 400 м
[Cb calv]
+20.9 +13.7 63 +25 +25 комфорт 1015.7 999.2
00 18.06 В 1 10 км {ливн. осадки} 10/8 540 м
[Sc Ac trans]
+18.2 +13.9 76 +20 +20 тепло 1015.5 998.9
03 18.06 СВ 1 10 км 9/0
[Ac trans Ci fib]
+16.7 +14.1 85 +18 +18 тепло 1016.1 999.4
06 18.06 ЮЗ 1 9000 м слабый ливневой дождь 10/10 270 м
[Cb calv]
+17.8 +15.9 89 +19 +19 тепло 1016.2 999.5 +16.5 0.8
09 18.06 ЮВ 2 20 км {ливн. осадки} 10/0
[Ci fib]
+24.5 +16.0 59 +28 +41 душно 1016.4 1000.2
12 18.06 ЮВ 2 30 км {ливн. осадки} 10/3 1000 м
[Cu hum Ci fib]
+28.5 +10.4 32 +29 +37 жарко 1015.5 999.5
15 18.06 ЮВ 2 30 км 10/3 1000 м
[Cu hum Ac trans Ci fib]
+28.3 +14.3 42 +30 +32 жарко 1014.5 998.5
18 18.06 СЗ 4 10 км 10/10 480 м
[St]
+22.4 +16.1 68 +27 +27 душно 1016.5 1000.1 +29.4 0.1
21 18.06 СВ 2 10 км 6/0
[Ac trans]
+19.7 +16.4 81 +23 +23 комфорт 1017.0 1000.4
00 19.06 ЮЗ 2 9000 м дымка ясно +18.3 +16.3 88 +19 +19 тепло 1017.1 1000.4
03 19.06 СЗ 2 9000 м дымка 6/6 1200 м
[Sc]
+18.3 +16.4 89 +19 +19 тепло 1017.4 1000.7
06 19.06 СЗ 2 20 км 8/0
[Ac trans]
+21.9 +17.3 75 +26 +30 душно 1017.3 1000.9 +18.1
09 19.06 СЗ 3 30 км 3/0
[Ac trans Ci fib]
+26.6 +16.6 54 +30 +42 душно 1016.6 1000.5
12 19.06 СЗ 3 15 км 8/6 1000 м
[Cu hum Ac trans]
+27.6 +14.4 44 +30 +33 жарко 1015.9 999.9
15 19.06 С 3 15 км 9/6 1000 м
[Cu hum Ac trans]
+28.9 +13.6 39 +31 +32 жарко 1014.9 999.0
18 19.06 С 2
{10}
10 км 10/0
[Ac trans Ci fib]
+25.7 +11.6 41 +27 +27 жарко 1016.1 999.9 +29.8
21 19.06 С 1 10 км 6/0
[Ci fib]
+21.2 +11.3 53 +23 +23 комфорт 1017.6 1001.1
00 20.06 С 1 10 км 8/0
[Ac trans Ci fib]
+18.7 +11.2 62 +20 +20 тепло 1018.9 1002.2
03 20.06 СВ 1 15 км 8/0
[Ci fib]
+16.3 +12.0 76 +17 +18 тепло 1020.4 1003.6
06 20.06 СЗ 1 15 км 8/0
[Ac trans]
+20.2 +13.6 66 +23 +28 комфорт 1020.9 1004.3 +16.3
09 20.06 СЗ 5
{10}
15 км 8/8 1000 м
[Cu hum]
+24.1 +10.6 43 +25 +27 комфорт 1020.1 1003.8
12 20.06 СЗ 5
{10}
15 км 8/8 1000 м
[Cu hum]
+26.8 +9.8 34 +27 +29 жарко 1018.6 1002.5
15 20.06 С 4
{11}
20 км ясно +28.0 +9.5 31 +28 +32 жарко 1017.5 1001.5
18 20.06 СВ 2 15 км ясно +25.7 +10.8 39 +27 +27 жарко 1017.0 1000.8 +28.7
21 20.06 С 1 10 км ясно +18.6 +11.3 62 +20 +20 тепло 1018.0 1001.3
00 21.06 штиль 0 10 км ясно +15.2 +12.0 81 +15 +15 тепло 1018.2 1001.3

 

Местоположение метеостанции Пинск (Брестская область, Беларусь): широта 52.12 долгота 26.06 высота над уровнем моря 142 м.

В архиве по умолчанию представлена погода в Пинске за последнюю неделю. Архивные данные за месяц целиком и за предыдущие месяцы, начиная с января 2011 года, Вы можете получить, выбрав интересующий диапазон дат из раскрывающегося списка и нажав кнопку "Ввод!".


*Определитесь, кто Вы:
робот инопланетянин человек

Внимание! Время в таблицах - всемирное. Для получения местного времени необходимо прибавить поправку, которая в Пинске равна 3 ч.

Смотрите также архив погоды в соседних городах и на ближайших метеорологических станциях:

Погода в Полесской (Брестская область, Беларусь) (48 км)
Погода в Дрогичине (Брестская область, Беларусь) (66 км)
Погода в Любешове (Волынская область, Украина) (74 км)
Погода в Ганцевичах (Брестская область, Беларусь) (75 км)
Погода в Ивацевичах (Брестская область, Беларусь) (80 км)
Погода в Маневичах (Волынская область, Украина) (100 км)
Погода в Сарнах (Ровенская область, Украина) (101 км)
Погода в Барановичах (Брестская область, Беларусь) (113 км)
Погода в Пружанах (Брестская область, Беларусь) (117 км)
Погода в Житковичах (Гомельская область, Беларусь) (124 км)

Пояснения к столбцам:

Ветер - указаны скорость ветра в м/с - средняя за 10 мин, порывы в срок и между сроками (в фигурных скобках) и направление, откуда дует ветер: С - северный, СВ - северо-восточный, В - восточный, ЮВ - юго-восточный, Ю - южный, ЮЗ - юго-западный, З - западный, СЗ - северо-западный.
Видимость - горизонтальная дальность видимости в метрах или километрах. При видимости от 1 до 10 км при отсутствии осадков обычно наблюдается дымка, при ухудшении видимости до 1 км и менее - туман. В сухую погоду видимость может ухудшаться дымом, пылью или мглою.
Явления - указаны атмосферные явления, наблюдавшиеся в срок или в последний час перед сроком; фигурными скобками обозначены явления, наблюдавшиеся между сроками (за 1-3 часа до срока); квадратными скобками обозначены град или гололедные отложения с указанием их диаметра в мм.
Облачность - указаны через наклонную черту общая и нижняя облачность в баллах и высота нижней границы облаков в метрах; квадратными скобками обозначены формы облаков: Ci - перистые, Cs - перисто-слоистые, Cc - перисто-кучевые, Ac - высококучевые, As - высокослоистые, Sc - слоисто-кучевые, Ns - слоисто-дождевые, Cu - кучевые, Cb - кучево-дождевые. Подробнее классификацию облаков см. в Атласе облаков (PDF).
T - Температура воздуха - температура, измеренная на высоте 2 м над землей.
Td - Температура точки росы - температура, при понижении до которой содержащийся в воздухе водяной пар достигнет насыщения.
f - Относительная влажность воздуха - влажноcть воздуха, измеренная на высоте 2 м над землей.
Te - Эффективная температура - температура, которую ощущает одетый по сезону человек в тени. Характеристика душности погоды. При расчете учитывается влияние влажности воздуха и скорости ветра на теплоощущения человека.
Tes - Эффективная температура на солнце - температура, которую ощущает человек, с поправкой на солнечный нагрев. Характеристика знойности погоды. Зависит от высоты солнца над горизонтом, облачности и скорости ветра. Ночью, в пасмурную погоду, а также при ветре 12 м/с и более поправка равна нулю.
P - Атмосферное давление - приведенное к уровню моря атмосферное давление.
Po - Атмосферное давление - измеренное на уровне метеостанции атмосферное давление.
Tmin - Минимальная температура - минимум температуры воздуха на высоте 2 м над землей.
Tmax - Максимальная температура - максимум температуры воздуха на высоте 2 м над землей.
R - Количество осадков - Количество выпавших осадков за период времени, мм. При наведении курсора мыши на число - период времени, за который выпало указанное количество осадков.
R24 - Количество осадков - Количество выпавших осадков за 24 часа, мм.
S - Снежный покров - Высота снежного покрова, см. При наведении курсора мыши на число - состояние снежного покрова и степень покрытия местности в баллах.